Estherville, IA

11:49 AM CDT on June 29, 2017 (GMT -0500)
Estherville Municipal

Weather History for KEST - October, 2011

Change the Weather History Date:

Thursday, October 13, 2011

  Actual Average Record
Temperature  
Mean Temperature 55 °F 49 °F  
Max Temperature 66 °F 61 °F 88 °F (1975)
Min Temperature 46 °F 37 °F 24 °F (1979)
Degree Days  
Heating Degree Days 10 16  
Month to date heating degree days 179  
Since 1 July heating degree days 387  
Cooling Degree Days 0 0  
Month to date cooling degree days 4  
Year to date cooling degree days 591  
Growing Degree Days 5 (Base 50)    
Moisture  
Dew Point 45 °F    
Average Humidity 77    
Maximum Humidity 92    
Minimum Humidity 46    
Precipitation  
Precipitation 0.07 in 0.07 in 0.61 in (2001)
Month to date precipitation 1.20  
Sea Level Pressure  
Sea Level Pressure 29.72 in    
Wind  
Wind Speed 10 mph (NW)    
Max Wind Speed 22 mph    
Max Gust Speed 26 mph    
Visibility 10 miles    
Events Rain    
T = Trace of Precipitation, MM = Missing Value Source: NWS Daily Summary

Daily Weather History Graph

Daily Weather History Graph

Search for Another Location

Airport or City:

Trip Planner

Search our weather history database for the weather conditions in past years. The results will help you decide how hot, cold, wet, or windy it might be!

Date:

Astronomy

Oct. 13, 2011 Rise Set
Actual Time 7:30 AM CDT 6:39 PM CDT
Civil Twilight 7:01 AM CDT 7:08 PM CDT
Nautical Twilight 6:28 AM CDT 7:41 PM CDT
Astronomical Twilight 5:55 AM CDT 8:14 PM CDT
Moon 7:10 PM CDT (10/13) 9:07 AM CDT (10/13)
Length of Visible Light 12h 06m
Length of Day
11h 09m
Full, 98% of the Moon is Illuminated
Oct 13
Full
Oct 19
Last Quarter
Oct 26
New
Nov 2
First Quarter
Nov 10
Full

Hourly Weather History & Observations

Time (CDT) Temp. Windchill Dew Point Humidity Pressure Visibility Wind Dir Wind Speed Gust Speed Precip Events Conditions
12:52 AM 51.1 °F - 48.9 °F 92% 29.71 in 10.0 mi WNW 6.9 mph - N/A   Clear
1:52 AM 51.1 °F - 48.0 °F 89% 29.71 in 10.0 mi WNW 9.2 mph - 0.01 in   Clear
2:52 AM 50.0 °F - 46.0 °F 86% 29.70 in 10.0 mi WNW 8.1 mph - N/A   Clear
3:52 AM 48.9 °F - 45.0 °F 86% 29.71 in 10.0 mi WNW 8.1 mph - N/A   Clear
4:52 AM 48.9 °F - 45.0 °F 86% 29.72 in 10.0 mi WNW 11.5 mph - N/A   Clear
5:52 AM 48.9 °F - 45.0 °F 86% 29.73 in 10.0 mi WNW 10.4 mph - N/A   Clear
6:52 AM 48.0 °F - 44.1 °F 86% 29.73 in 10.0 mi WNW 9.2 mph - N/A   Clear
7:52 AM 48.0 °F - 45.0 °F 89% 29.74 in 10.0 mi WNW 9.2 mph - N/A   Clear
8:52 AM 51.1 °F - 46.0 °F 83% 29.75 in 10.0 mi WNW 12.7 mph 20.7 mph N/A   Clear
9:52 AM 54.0 °F - 46.9 °F 77% 29.75 in 10.0 mi NW 17.3 mph 23.0 mph N/A   Clear
10:52 AM 57.9 °F - 46.9 °F 67% 29.75 in 10.0 mi WNW 13.8 mph 23.0 mph N/A   Clear
11:52 AM 61.0 °F - 45.0 °F 56% 29.74 in 10.0 mi WNW 21.9 mph 26.5 mph N/A   Clear
12:52 PM 63.0 °F - 46.0 °F 54% 29.73 in 10.0 mi NW 15.0 mph 23.0 mph N/A   Clear
1:52 PM 64.0 °F - 43.0 °F 46% 29.71 in 10.0 mi NW 19.6 mph 26.5 mph N/A   Clear
3:52 PM 60.1 °F - 46.0 °F 60% 29.69 in 8.0 mi NNW 13.8 mph 21.9 mph 0.01 in Rain Light Rain
4:52 PM 55.0 °F - 46.9 °F 74% 29.71 in 8.0 mi NW 17.3 mph 26.5 mph 0.05 in Rain Light Rain
5:52 PM 54.0 °F - 44.1 °F 69% 29.70 in 10.0 mi NW 3.5 mph - 0.00 in   Partly Cloudy
6:52 PM 52.0 °F - 46.0 °F 80% 29.73 in 10.0 mi North 5.8 mph - N/A   Mostly Cloudy
7:52 PM 48.0 °F - 44.1 °F 86% 29.73 in 10.0 mi NW 3.5 mph - N/A   Clear
8:52 PM 46.9 °F - 43.0 °F 86% 29.72 in 10.0 mi WSW 8.1 mph - N/A   Mostly Cloudy
9:52 PM 46.0 °F 43.1 °F 42.1 °F 86% 29.73 in 10.0 mi West 5.8 mph - N/A   Clear
10:47 PM 48.2 °F - 41.0 °F 76% 29.73 in 10.0 mi NNW 9.2 mph - N/A   Partly Cloudy
10:52 PM 48.9 °F - 41.0 °F 74% 29.74 in 10.0 mi NNW 8.1 mph - N/A   Scattered Clouds
11:52 PM 46.0 °F 41.9 °F 41.0 °F 83% 29.74 in 10.0 mi WNW 8.1 mph - N/A   Clear